Location: Unspecified
(40.7945°N, 0.0000°E)
Time: 18:55:29
(UTC+00:00)

Hubble Space Telescope - Pass Details

Date: 04 December 2020
Orbit: 536 x 539 km, 28.5° (Epoch: 16 January)

Event Time Altitude Azimuth Distance (km) Brightness Sun altitude
Rises 17:49:02 0° 224° (SW) 2,665 5.5 -14.1°
Reaches altitude 10° 17:52:35 10° 192° (SSW) 1,775 3.8 -14.8°
Maximum altitude 17:54:10 12° 169° (S) 1,652 3.3 -15.1°
Drops below altitude 10° 17:55:45 10° 147° (SSE) 1,776 3.2 -15.3°
Enters shadow 17:56:43 - 135° (SE) 1,954 3.3 -15.5°
